Aérodrome :
LOGIN :

S'inscrire | Disclaimer

   EN    FR    IT 

 










Légende :    VFR   VFR Marginal   IFR   IFR Intensif   IFR Très Intensif
Visi : 
Plafond : 
>= 8 km
>= 3000ft
5 à 8 km
1000 à 3000 ft
1500m à 5 km
500 à 1000 ft
800 à 1500m
200 à 500 ft
< 800m
< 200 ft
Symboles :   Orages  Brouillard  Fortes neiges  Fortes précipitations  Vent > 20 kt
SIGMETs :   Divers  Orages  Givrage  Turbulence  Onde Orograph.  Cendres Volcan.







- Altitude de l'aérodrome : 24 ft
- Code IATA : IBZ


LEIB - Ibiza

DERNIER METAR :
  • 212300Z 23003KT 190V260 CAVOK 14/11 Q1025 NOSIG

METARs EXPIRÉS :
  • 212230Z 23005KT 190V260 CAVOK 15/11 Q1025 NOSIG
  • 212200Z 21004KT 170V260 CAVOK 15/11 Q1024 NOSIG
  • 212130Z 23006KT CAVOK 15/10 Q1024 NOSIG

TAF TAF LEIB
Valide du 21 à 21h jusqu'au 22 à 21h UTC


212000Z 2121/2221 27005KT CAVOK TX19/2212Z TN10/2207Z
TEMPO 2212/2217 23010KT
Pas de NOTAMs connus pour ce terrain.



MET'MAP, la Météo Aéronautique d'un coup d'oeil ! - Copyright ORBIFLY Décembre 2007 - Disclaimer

ORBIFLY MET'MAP TEAM :

Programmation & Développement : Alexandra Zaïnal
Conception & Développement : Baudouin d'Aumeries
Co-Programmation & Développement : Marc-Olivier Méhu
Soutien technique & logistique : Manuel Goepfert

Contact : metmap@orbifly.com




SOURCES & CREDITS :

   NOAA